Location: Baak
(52.0776°N, 6.2265°E)
Time: 16:51:17
(UTC+00:00)

Meteor 1-12 Rocket - Visible Passes

Search period start: 13 November 2025 00:00
Search period end: 23 November 2025 00:00
Orbit: 854 x 924 km, 81.2° (Epoch: 13 November)

Date Brightness Start Highest point End Pass type
(mag) Time Alt. Az. Time Alt. Az. Time Alt. Az.
13 Nov 5.8 16:19:55 10° SW 16:25:19 38° WNW 16:30:51 10° N visible
14 Nov 5.9 16:19:40 10° SW 16:24:57 34° WNW 16:30:22 10° N visible
15 Nov 6.1 16:19:26 10° SW 16:24:36 31° WNW 16:29:52 10° N visible
16 Nov 6.2 16:19:15 10° WSW 16:24:16 28° WNW 16:29:22 10° N visible
17 Nov 6.3 16:19:05 10° WSW 16:23:55 26° WNW 16:28:50 10° N visible
18 Nov 6.4 16:18:58 10° WSW 16:23:35 23° WNW 16:28:18 10° N visible
19 Nov 6.5 16:18:52 10° WSW 16:23:16 21° WNW 16:27:44 10° N visible
20 Nov 6.6 16:18:49 10° W 16:22:58 19° NW 16:27:10 10° N visible
21 Nov 6.7 16:18:48 10° W 16:22:40 17° NW 16:26:35 10° NNW visible
22 Nov 6.7 16:18:50 10° W 16:22:23 16° NW 16:25:57 10° NNW visible
